STARLINK-11112, 60115

Orbit data source: Space-Track

STARLINK-11112, 60115 is a payload satellite owned by SpaceX/Seattle (US) in LEO that was launched on Mon, 24 Jun 2024 UTC via an FALCON 9 launch vehicle from the Air Force Western Test Range (AFWTR). Payload-class satellites include a variety of spacecraft equipped with specific instruments for various scientific and technological missions. These include communications satellites like Starlink; space stations such as the ISS; scientific satellites like the Hubble; Earth observation satellites from companies like Planet Labs, Umbra, and HawkEye 360; GPS; miniature CubeSats for education and research; and military/defense satellites.

Loading next visibility...
Identifier
60115, 2024-118C
Orbit
LEO
Country
Flag of USUS
Related business
Manufacturer
SpaceX/Seattle
Mission
Operational Commercial Communications
Bus & Motor
STARLINK V2MD, Unknown motor
Mass
960 kg wet, ~910 kg dry
Launch date (UTC)
2024-06-24 (1 year ago)
Launch vehicle
FALCON 9
Launch site
Air Force Western Test Range (AFWTR)
Object type
Payload
Rocket body
Debris
Shape & HBR
Box + 2 Pan, 18.1 m
Radar Cross Section
36.964 m², Large (>1 m²)

Expand to show TLE details & history
Last TLE update: 2 days ago

TLE from 2 days ago
0 STARLINK-11112
1 60115U 24118C   25302.99611569 -.00001829  00000-0 -10239-4 0  9998
2 60115  53.1595 145.7405 0001224  89.0745 271.0413 15.69704525 77467
Epoch: 2025-10-29T23:54Z
TLE epoch observation values (Epoch: 2025-10-29T23:54:24.395Z)
Latitude
-0.00004°
Longitude
108.57758°
Altitude
360.643 km
Speed
7.694 km/s
True Right ascension
09h 42m 57s
True Declination
0° 00' 00"
Sunlit
Object was in daylight at epoch
Visualization orbit readout
Latitude
Unknown
Longitude
Unknown
Altitude
Unknown
Speed
Unknown
Apparent Right ascension
Unknown
Apparent Declination
Unknown
Sunlit
N/A
Visualization observer readout
Local Sidereal Time
08:10:41
Azimuth
Unknown
Elevation
Unknown
Doppler factor
Unknown
Orbital elements
Apogee altitude
360.828 km
Perigee altitude
359.178 km
Semi-major axis
6,738.14 km
Eccentricity
0.00012
Inclination
53.1595°
RAAN
145.7405°
Arg. of periapsis
89.0745°
True anomaly
271.02728°
Mean anomaly
271.0413°
Eccentric anomaly
271.03429°
Mean motion
3.92404 °/min
Orbital period
91.74 mins
BSTAR
-0.000010239
Loading maneuver chart data...
Computing Atmospheric mass density...
Loading historical data...
Loading historical data...
Loading historical data...
Loading historical data...
Loading historical data...
Loading historical data...
Loading historical data...

Documentation

Showing up to 5 results
|